Regional Weather Roundup
Issued by NWS

Home | Current Version | Previous Version | Graphics & Text | Print | Product List | Glossary On
Versions: 1 2 3 4 5 6 7 8 9 10 11 12 13 14 15 16 17 18 19 20 21 22 23 24 25 26 27 28 29 30 31 32 33 34 35 36 37 38 39 40 41 42 43 44 45 46 47 48 49 50
000
ASUS43 KLMK 290810
RWRKY
KENTUCKY REGIONAL WEATHER ROUNDUP
NATIONAL WEATHER SERVICE LOUISVILLE KY
400 AM EDT MON MAY 29 2017

NOTE "FAIR" INDICATES FEW OR NO CLOUDS BELOW 12,000 FEET
WITH NO SIGNIFICANT WEATHER AND/OR OBSTRUCTIONS TO VISIBILITY.

KYZ001>023-026-027-061>063-070>075-290900-
WESTERN AND SOUTH CENTRAL KENTUCKY

CITY           SKY/WX    TMP DP  RH WIND       PRES   REMARKS
PADUCAH        CLOUDY    65  63  93 SW3       29.93R
HENDERSON      CLOUDY    65  63  93 SW7       29.92R
OWENSBORO      CLOUDY    63  62  97 SW5       29.91R
HOPKINSVILLE   MOCLDY    65  65 100 SW6       29.95R
BOWLING GREEN  CLOUDY    66  64  93 SW6       29.95R
GLASGOW        CLOUDY   N/A N/A N/A SW3       29.95R
$$

KYZ024-025-028>034-038-045-046-053-290900-
NORTH CENTRAL KENTUCKY

CITY           SKY/WX    TMP DP  RH WIND       PRES   REMARKS
LOUISVILLE/SDF CLOUDY    67  64  90 SW5       29.89R
LOUISVILLE/LOU CLOUDY    65  65 100 CALM      29.89S FOG
FORT KNOX      CLOUDY    63  63 100 SW5       29.89R
$$

KYZ035>037-039>044-047>052-055>060-089>105-290900-
NORTHEAST KENTUCKY

CITY           SKY/WX    TMP DP  RH WIND       PRES   REMARKS
LEXINGTON      PTCLDY    64  61  90 SW6       29.91S
COVINGTON      MOCLDY    60  59  96 SW5       29.86F
FRANKFORT      CLOUDY    63  60  90 SW3       29.88F
$$

KYZ054-064>069-076>088-106>120-290900-
SOUTHEAST KENTUCKY

CITY           SKY/WX    TMP DP  RH WIND       PRES   REMARKS
JACKSON        CLOUDY    66  62  87 CALM      29.92S
LONDON         CLOUDY    66  61  84 SW3       29.94S
SOMERSET       CLOUDY    61  61 100 CALM      29.95R
MIDDLESBORO    CLOUDY    64  64  99 CALM      29.96S
MONTICELLO     CLOUDY    66  63  90 W12       29.97R
$$




USA.gov is the U.S. government's official web portal to all federal, state and local government web resources and services.